Content
SEND FEEDBACK

Daily
Averages
Monthly
Summary
Cuba

GUANABACOA, CUBA


Home > Caribbean > Cuba
Elevation: 164 feet     Latitude: 23 10N     Longitude: 082 21W

WEATHER
 
SELECT A DAY
Number of Records: 138,881;   Date Range: 6/30/96 - 7/20/14
 
SHARE

PRINT THIS DATA

[ ← Previous Day ]
WEATHER ALMANAC - DECEMBER 22, 2013
[ Next Day → ]
[ °C ]   °F
Weather ElementAverageHighLow
Temperature75.2 °F84.2 °F (1:55 pm)68 °F (1:55 am)
Dewpoint67.3 °F69.8 °F (4:55 am)66.2 °F (1:55 am)
Humidity76.9 %94 % (1:55 am)49 % (4:00 pm)
Barometer30.07 in30.13 in (10:00 pm)30.04 in (1:55 am)
Wind Speed7.1 mph18.4 mph (10:55 am)
Weather ElementAverage
Visibility5.7 mi
Wind DirectionESE (106.8 °)

Weather ElementTotal
Precipitation---
Cooling Degree Days11.1 (Base 65)
Growing Degree Days26.1 (Base 50)
Averaged from 27 records on December 22, 2013
WEATHER CONDITIONS BREAKOUT
WIND DIRECTION BREAKOUT
WEATHER BY HOUR - DECEMBER 22, 2013
[ °C ]   °F
Local TimeTemperatureDewpointHumidityBarometerVisibilityWind DirectionWind SpeedGust SpeedPrecipitationEventsConditions
1:55 AM68.0 °F66.2 °F94 %30.04 in5.6 miEast (80°)4.6 mphClear
2:55 AM68.0 °F66.2 °F94 %30.04 in5.6 miENE (70°)2.3 mphClear
3:55 AM69.8 °F66.2 °F88 %30.04 in5.6 miEast (90°)4.6 mphClear
4:00 AM69.0 °F67.0 °F90 %30.05 in6.0 mi°2.2 mphHaze
4:55 AM71.6 °F69.8 °F94 %30.04 in5.6 miEast (80°)3.5 mphClear
5:55 AM73.4 °F68.0 °F83 %30.04 in5.6 miEast (100°)6.9 mphClear
6:55 AM73.4 °F68.0 °F83 %30.06 in5.6 miESE (110°)9.2 mphClear
7:55 AM73.4 °F68.0 °F83 %30.06 in5.6 miESE (120°)8.1 mph
8:55 AM77.0 °F68.0 °F74 %30.09 in5.6 miESE (120°)10.4 mph
9:55 AM78.8 °F68.0 °F69 %30.09 inSE (130°)16.1 mphClear
10:00 AM79.0 °F68.0 °F62 %30.10 in6.0 miSE (140°)15.7 mphHaze
10:55 AM80.6 °F68.0 °F65 %30.09 inSE (130°)18.4 mphClear
11:55 AM82.4 °F66.2 °F58 %30.06 in6.2 miESE (120°)13.8 mphPartly Cloudy
12:55 PM82.4 °F66.2 °F58 %30.06 in5.6 miSE (140°)12.7 mphPartly Cloudy
1:55 PM84.2 °F68.0 °F58 %30.04 in5.6 miSSE (160°)10.4 mphPartly Cloudy
2:55 PM82.4 °F68.0 °F62 %30.04 in5.6 miSSE (160°)9.2 mphPartly Cloudy
3:55 PM82.4 °F66.2 °F58 %30.04 in5.6 miSSE (160°)8.1 mphPartly Cloudy
4:00 PM83.0 °F67.0 °F49 %30.04 in6.0 miSE (140°)6.7 mphScattered Clouds
4:55 PM82.4 °F66.2 °F58 %30.04 in5.6 miSSE (150°)8.1 mphPartly Cloudy
5:55 PM78.8 °F66.2 °F65 %30.06 in5.6 miSSE (150°)4.6 mphPartly Cloudy
6:55 PM73.4 °F68.0 °F83 %30.06 in5.6 miSSE (150°)2.3 mphPartly Cloudy
7:55 PM71.6 °F68.0 °F88 %30.09 in5.6 miVariable1.2 mphPartly Cloudy
8:55 PM69.8 °F68.0 °F94 %30.09 in5.6 miSouth (170°)3.5 mphPartly Cloudy
9:55 PM69.8 °F66.2 °F88 %30.12 in5.6 miVariable2.3 mphPartly Cloudy
10:00 PM69.0 °F67.0 °F91 %30.13 in6.0 mi°2.2 mphScattered Clouds
10:55 PM68.0 °F66.2 °F94 %30.12 in5.6 miVariable2.3 mphPartly Cloudy
11:55 PM69.8 °F68.0 °F94 %30.12 in5.6 miVariable1.2 mphPartly Cloudy
Hourly data recorded from MUHA, located miles away from Guanabacoa, Cuba







STORIES FROM OUR PARTNERS